Weather History for Cumberland, WI

Change the Weather History Date:

Thursday, May 23, 2013

  Actual Average (KRPD) Record (KRPD)
Temperature  
Mean Temperature 47 °F -  
Max Temperature 57 °F 65 °F 80 °F (2012)
Min Temperature 37 °F 44 °F 37 °F (2013)
Degree Days  
Heating Degree Days 18    
Moisture  
Dew Point 31 °F    
Average Humidity 56    
Maximum Humidity 81    
Minimum Humidity 31    
Precipitation  
Precipitation 0.00 in - - ()
Sea Level Pressure  
Sea Level Pressure 30.22 in    
Wind  
Wind Speed 13 mph (NE)    
Max Wind Speed 21 mph    
Max Gust Speed 26 mph    
Visibility 10 miles    
Events      
Averages and records for this station are not official NWS values.
T = Trace of Precipitation, MM = Missing Value Source: NWS Daily Summary

Daily Weather History Graph

Daily Weather History Graph

Search for Another Location

Airport:

Trip Planner

Search our weather history database for the weather conditions in past years. The results will help you decide how hot, cold, wet, or windy it might be!

Date:

Astronomy

May. 23, 2013 Rise Set
Actual Time 5:28 AM CDT 8:41 PM CDT
Civil Twilight 4:53 AM CDT 9:17 PM CDT
Nautical Twilight 4:06 AM CDT 10:03 PM CDT
Astronomical Twilight 3:09 AM CDT 11:01 PM CDT
Moon 7:10 PM CDT (5/23) 4:19 AM CDT (5/23)
Length of Visible Light 16h 23m
Length of Day
15h 12m
Waxing Gibbous, 97% of the Moon is Illuminated
May 23
Waxing Gibbous
May 24
Full
May 31
Last Quarter
Jun 8
New
Jun 16
First Quarter

Hourly Weather History & Observations

Time (CDT) Temp. Windchill Dew Point Humidity Pressure Visibility Wind Dir Wind Speed Gust Speed Precip Events Conditions
12:15 AM 46.4 °F 40.4 °F 39.2 °F 76% 30.01 in 10.0 mi NNE 13.8 mph 19.6 mph N/A   Clear
12:35 AM 46.4 °F 39.0 °F 37.4 °F 71% 30.02 in 10.0 mi NE 19.6 mph 26.5 mph N/A   Clear
12:55 AM 44.6 °F 37.4 °F 37.4 °F 76% 30.03 in 10.0 mi NNE 16.1 mph 21.9 mph N/A   Clear
1:15 AM 44.6 °F 36.4 °F 37.4 °F 76% 30.03 in 10.0 mi NE 20.7 mph 26.5 mph N/A   Clear
1:35 AM 44.6 °F 36.9 °F 37.4 °F 76% 30.04 in 10.0 mi NE 18.4 mph 24.2 mph N/A   Clear
1:55 AM 42.8 °F 35.1 °F 35.6 °F 76% 30.05 in 10.0 mi NE 16.1 mph 23.0 mph N/A   Clear
2:15 AM 42.8 °F 35.4 °F 35.6 °F 76% 30.05 in 10.0 mi NE 15.0 mph 26.5 mph N/A   Clear
2:35 AM 42.8 °F 35.4 °F 35.6 °F 76% 30.06 in 10.0 mi NE 15.0 mph 23.0 mph N/A   Clear
2:55 AM 42.8 °F 35.4 °F 33.8 °F 70% 30.06 in 10.0 mi NE 15.0 mph 24.2 mph N/A   Clear
3:15 AM 42.8 °F 35.8 °F 33.8 °F 70% 30.07 in 10.0 mi NNE 13.8 mph 19.6 mph N/A   Clear
3:35 AM 41.0 °F 33.5 °F 32.0 °F 70% 30.08 in 10.0 mi NNE 13.8 mph 19.6 mph N/A   Clear
3:55 AM 41.0 °F 33.9 °F 32.0 °F 70% 30.08 in 10.0 mi NNE 12.7 mph 23.0 mph N/A   Clear
4:15 AM 41.0 °F 33.9 °F 32.0 °F 70% 30.09 in 10.0 mi NNE 12.7 mph 19.6 mph N/A   Clear
4:35 AM 41.0 °F 33.1 °F 32.0 °F 70% 30.10 in 10.0 mi NNE 15.0 mph 19.6 mph N/A   Clear
4:55 AM 39.2 °F 30.8 °F 32.0 °F 75% 30.11 in 10.0 mi NNE 15.0 mph - N/A   Clear
5:15 AM 39.2 °F 31.6 °F 32.0 °F 75% 30.13 in 10.0 mi NNE 12.7 mph 18.4 mph N/A   Clear
5:35 AM 37.4 °F 29.8 °F 32.0 °F 81% 30.13 in 10.0 mi NNE 11.5 mph - N/A   Clear
5:55 AM 37.4 °F 29.3 °F 32.0 °F 81% 30.14 in 10.0 mi NNE 12.7 mph 17.3 mph N/A   Clear
6:15 AM 39.2 °F 31.6 °F 32.0 °F 75% 30.15 in 10.0 mi NNE 12.7 mph 19.6 mph N/A   Clear
6:35 AM 39.2 °F 31.6 °F 32.0 °F 75% 30.16 in 10.0 mi NNE 12.7 mph - N/A   Clear
6:55 AM 41.0 °F 33.9 °F 32.0 °F 70% 30.17 in 10.0 mi NNE 12.7 mph 17.3 mph N/A   Clear
7:15 AM 41.0 °F 33.5 °F 32.0 °F 70% 30.18 in 10.0 mi NE 13.8 mph 19.6 mph N/A   Clear
7:35 AM 41.0 °F 32.8 °F 32.0 °F 70% 30.19 in 10.0 mi NE 16.1 mph 23.0 mph N/A   Clear
7:55 AM 41.0 °F 34.3 °F 32.0 °F 70% 30.20 in 10.0 mi NNE 11.5 mph - N/A   Clear
8:15 AM 42.8 °F 35.1 °F 32.0 °F 66% 30.20 in 10.0 mi NNE 16.1 mph 19.6 mph N/A   Clear
8:35 AM 42.8 °F 34.8 °F 32.0 °F 66% 30.22 in 10.0 mi NNE 17.3 mph 21.9 mph N/A   Clear
8:55 AM 42.8 °F 35.8 °F 32.0 °F 66% 30.23 in 10.0 mi NNE 13.8 mph 19.6 mph N/A   Clear
9:15 AM 44.6 °F 39.2 °F 32.0 °F 61% 30.24 in 10.0 mi North 10.4 mph - N/A   Clear
9:35 AM 44.6 °F 37.8 °F 32.0 °F 61% 30.24 in 10.0 mi NNE 15.0 mph - N/A   Clear
9:55 AM 46.4 °F 40.4 °F 30.2 °F 53% 30.24 in 10.0 mi NE 13.8 mph 21.9 mph N/A   Clear
10:15 AM 46.4 °F 40.7 °F 30.2 °F 53% 30.24 in 10.0 mi NNE 12.7 mph 18.4 mph N/A   Clear
10:35 AM 48.2 °F - 32.0 °F 54% 30.24 in 10.0 mi North 15.0 mph 18.4 mph N/A   Clear
10:55 AM 48.2 °F - 32.0 °F 54% 30.25 in 10.0 mi NNE 11.5 mph 17.3 mph N/A   Clear
11:15 AM 50.0 °F - 30.2 °F 47% 30.25 in 10.0 mi NNE 12.7 mph 19.6 mph N/A   Clear
11:35 AM 50.0 °F - 30.2 °F 47% 30.25 in 10.0 mi NE 12.7 mph 17.3 mph N/A   Clear
11:55 AM 51.8 °F - 30.2 °F 44% 30.26 in 10.0 mi North 12.7 mph 17.3 mph N/A   Clear
12:15 PM 51.8 °F - 32.0 °F 47% 30.26 in 10.0 mi North 11.5 mph - N/A   Clear
12:35 PM 53.6 °F - 32.0 °F 44% 30.26 in 10.0 mi North 11.5 mph 19.6 mph N/A   Clear
12:55 PM 53.6 °F - 30.2 °F 41% 30.26 in 10.0 mi North 15.0 mph 21.9 mph N/A   Clear
1:15 PM 53.6 °F - 32.0 °F 44% 30.27 in 10.0 mi North 12.7 mph - N/A   Clear
1:35 PM 55.4 °F - 30.2 °F 38% 30.27 in 10.0 mi NNE 16.1 mph - N/A   Clear
1:55 PM 55.4 °F - 30.2 °F 38% 30.27 in 10.0 mi NNE 12.7 mph 18.4 mph N/A   Clear
2:15 PM 55.4 °F - 32.0 °F 41% 30.27 in 10.0 mi NNE 11.5 mph 21.9 mph N/A   Clear
2:35 PM 55.4 °F - 30.2 °F 38% 30.27 in 10.0 mi NE 17.3 mph 24.2 mph N/A   Clear
2:55 PM 57.2 °F - 32.0 °F 38% 30.27 in 10.0 mi NE 19.6 mph 23.0 mph N/A   Clear
3:15 PM 55.4 °F - 30.2 °F 38% 30.27 in 10.0 mi NNE 15.0 mph 19.6 mph N/A   Clear
3:35 PM 57.2 °F - 30.2 °F 36% 30.27 in 10.0 mi NNE 17.3 mph 20.7 mph N/A   Clear
3:55 PM 57.2 °F - 30.2 °F 36% 30.27 in 10.0 mi NNE 9.2 mph 19.6 mph N/A   Clear
4:15 PM 57.2 °F - 30.2 °F 36% 30.27 in 10.0 mi ENE 13.8 mph 19.6 mph N/A   Clear
4:35 PM 57.2 °F - 30.2 °F 36% 30.27 in 10.0 mi NNE 12.7 mph 17.3 mph N/A   Clear
4:55 PM 57.2 °F - 28.4 °F 33% 30.28 in 10.0 mi NE 15.0 mph - N/A   Clear
5:15 PM 55.4 °F - 28.4 °F 36% 30.28 in 10.0 mi NE 12.7 mph 21.9 mph N/A   Clear
5:35 PM 55.4 °F - 24.8 °F 31% 30.29 in 10.0 mi NE 9.2 mph - N/A   Clear
5:55 PM 55.4 °F - 26.6 °F 33% 30.29 in 10.0 mi NE 13.8 mph 18.4 mph N/A   Clear
6:15 PM 55.4 °F - 26.6 °F 33% 30.29 in 10.0 mi NE 12.7 mph 18.4 mph N/A   Clear
6:35 PM 55.4 °F - 28.4 °F 36% 30.29 in 10.0 mi NE 9.2 mph - N/A   Clear
6:55 PM 55.4 °F - 26.6 °F 33% 30.30 in 10.0 mi ENE 9.2 mph - N/A   Clear
7:15 PM 53.6 °F - 28.4 °F 38% 30.30 in 10.0 mi ENE 11.5 mph - N/A   Clear
7:35 PM 53.6 °F - 28.4 °F 38% 30.30 in 10.0 mi ENE 8.1 mph - N/A   Clear
7:55 PM 51.8 °F - 28.4 °F 41% 30.30 in 10.0 mi ENE 8.1 mph - N/A   Clear
8:15 PM 51.8 °F - 30.2 °F 44% 30.31 in 10.0 mi ENE 4.6 mph - N/A   Clear
8:35 PM 50.0 °F - 32.0 °F 50% 30.31 in 10.0 mi East 6.9 mph - N/A   Clear
8:55 PM 46.4 °F 44.3 °F 32.0 °F 57% 30.32 in 10.0 mi East 4.6 mph - N/A   Clear
9:15 PM 46.4 °F 43.5 °F 30.2 °F 53% 30.33 in 10.0 mi ENE 5.8 mph - N/A   Clear
9:35 PM 44.6 °F 41.4 °F 32.0 °F 61% 30.33 in 10.0 mi ENE 5.8 mph - N/A   Clear
9:55 PM 44.6 °F 43.1 °F 30.2 °F 57% 30.34 in 10.0 mi East 3.5 mph - N/A   Clear
10:15 PM 44.6 °F 43.1 °F 28.4 °F 53% 30.34 in 10.0 mi East 3.5 mph - N/A   Clear
10:35 PM 42.8 °F - 30.2 °F 61% 30.34 in 10.0 mi Calm Calm - N/A   Clear
10:55 PM 44.6 °F - 28.4 °F 53% 30.34 in 10.0 mi Calm Calm - N/A   Clear
11:15 PM 41.0 °F - 30.2 °F 65% 30.35 in 10.0 mi Calm Calm - N/A   Clear
11:35 PM 41.0 °F - 32.0 °F 70% 30.35 in 10.0 mi Calm Calm - N/A   Clear
11:55 PM 37.4 °F - 32.0 °F 81% 30.35 in 10.0 mi Calm Calm - N/A   Clear